Погода в Эскуинтле

Гватемала     14°17′59″N   90°46′53″W
темп.,
°C
ветер,
м/с
пор.,
м/с
влажн.,
%
обл.,
%
осадки,
мм/ч
давл.,
гПа
погр.,
м
9 августа, вт
вт900:00+20ссв2292100 3.1 101329
03:00+21ссв338497 0.0 101150
06:00+21ссв2376100 0.0 101249
09:00+27ю116299 0.0 1014438
12:00+28ююз216692 0.3 1012894
15:00+28ююз1169100 1.2 1010764
18:00+24сз119499 3.8 101251
21:00+22св219460 0.3 101323
10 августа, ср
ср1000:00+21ссв119253 1.3 101320
03:00+21ссв229024 0.3 101223
06:00+21с228989 0.7 101329
09:00+27юз216616 0.0 1014504
12:00+29ююз216726 0.9 10131020
15:00+27ююз118195 1.8 1011388
18:00+24ююз1194100 3.1 101323
21:00+22св1196100 2.3 101420
11 августа, чт
чт1100:00+21св2296100 5.4 101542
03:00+21с3393100 0.7 101261
06:00+22св228998 0.7 101334
09:00+27ююз116578 0.0 1014457
12:00+29ююз326053 0.0 1013996
15:00+29ююз2167100 0.8 10101008
18:00+25ю1192100 2.6 101234
21:00+22ссв1196100 4.0 101418
12 августа, пт
пт1200:00+21ссв2395100 8.9 101455
03:00+21с3393100 0.5 101348
06:00+21ссв329127 0.6 101339
09:00+27ююз10675 0.0 1014525
12:00+29ююз216528 0.6 10131160
15:00+26ю1185100 5.1 1012540
18:00+23сз0093100 8.9 101325
21:00+22с219581 1.0 101521
13 августа, сб
сб1300:00+21ссв229461 1.1 101529
03:00+20ссв22915 0.0 101335
06:00+20ссв228852 0.0 101434
09:00+26ююз217177 0.0 1015548
12:00+29ююз326577 0.0 10131064
15:00+28юз327080 0.4 1011952
18:00+24ююз129699 2.1 101286
21:00+22с119740 2.8 101425